AirNav   Air Wisconsin Up To $57,000 Bonus
 
 1564 users online  

3J6 Davis Field Airport
Folkston, Georgia, USA

GOING TO FOLKSTON?


FAA INFORMATION EFFECTIVE 25 FEBRUARY 2021

Location

FAA Identifier: 3J6
Lat/Long: 30-47-46.9000N 082-01-41.4000W
30-47.781667N 082-01.690000W
30.7963611,-82.0281667
(estimated)
Elevation: 68 ft. / 21 m (estimated)
Variation: 03W (1985)
From city: 3 miles SW of FOLKSTON, GA
Time zone: UTC -5 (UTC -4 during Daylight Saving Time)
Zip code: 31537

Airport Operations

Airport use: Open to the public
Activation date: 11/1962
Control tower: no
ARTCC: JACKSONVILLE CENTER
FSS: MACON FLIGHT SERVICE STATION
NOTAMs facility: MCN (NOTAM-D service available)
Attendance: UNATNDD
Wind indicator: lighted
Segmented circle: yes
Lights: MIRL RWY 01/19 PRESET LOW INTST DUSK-2030; AFT 2030 ACTVT - CTAF.
Beacon: white-green (lighted land airport)
Operates sunset to sunrise.

Airport Communications

CTAF: 122.9

Nearby radio navigation aids

VOR radial/distance  VOR name  Freq  Var
TAYr060/32.2TAYLOR VORTAC112.9003W
SSIr247/33.6BRUNSWICK VORTAC109.8004W
VQQr352/(35.7)CECIL VOR117.9003W
CRGr319/38.3CRAIG VORTAC114.5003W
AYSr136/39.3WAYCROSS VORTAC110.2000E

Airport Services

Parking: tiedowns
Airframe service: NONE
Powerplant service: NONE
Bottled oxygen: NONE
Bulk oxygen: NONE

Runway Information

Runway 1/19

Dimensions: 2500 x 50 ft. / 762 x 15 m
Surface: asphalt, in good condition
Weight bearing capacity: 
Single wheel: 12.5
Runway edge lights: medium intensity
RUNWAY 1  RUNWAY 19
Latitude: 30-47.575833N30-47.988333N
Longitude: 082-01.694833W082-01.685000W
Traffic pattern: rightleft
Markings: basic, in good conditionbasic, in good condition
Obstructions: 42 ft. trees, 201 ft. from runway, 100 ft. left and right of centerline
+50 FT TREES 90 FT LEFT & RIGHT AT THLD
19 ft. trees, 580 ft. from runway, 100 ft. left of centerline, 20:1 slope to clear

Airport Ownership and Management from official FAA records

Ownership: Publicly-owned
Owner: CHARLTON COUNTY
68 KINGSLAND DR. STE B
FOLKSTON, GA 31537
Phone 912-496-2549
Manager: HAMPTON RAULERSON
68 KINSLAND DR., STE B
FOLKSTON, GA 31537
Phone (912) 886-3260

Airport Operational Statistics

Aircraft based on the field: 8
Single engine airplanes: 8
    
Aircraft operations: avg 61/week *
62% local general aviation
31% transient general aviation
6% military
* for 12-month period ending 31 December 2019

Additional Remarks

LGTD 272 FT AGL TOWER 1000 FT WEST.
FOR CD CTC JACKSONVILLE APCH AT 904-741-0284.

Instrument Procedures

There are no published instrument procedures at 3J6.

Some nearby airports with instrument procedures:

KJAX - Jacksonville International Airport (25 nm SE)
4J1 - Brantley County Airport (25 nm N)
KFHB - Fernandina Beach Municipal Airport (31 nm E)
KAYS - Waycross-Ware County Airport (33 nm NW)
KHEG - Herlong Recreational Airport (33 nm S)
 
Loc | Ops | Rwys | IFR | FBO | Links
Com | Nav | Svcs | Stats | Notes
Area around 3J6 (Davis Field Airport)
 
Road maps at: MapQuest Bing Google
 
Aerial photo
WARNING: Photo may not be current or correct
Aerial photo of 3J6 (Davis Field Airport)
Do you have a better or more recent aerial photo of Davis Field Airport that you would like to share? If so, please send us your photo.

 
Sectional chart

 
Airport distance calculator
Flying to Davis Field Airport? Find the distance to fly.

From to 3J6

Sunrise and sunset
Times for 08-Mar-2021
 Local
(UTC-5)
 Zulu
(UTC)
Morning civil twilight06:2311:23
Sunrise06:4811:48
Sunset18:3023:30
Evening civil twilight18:5523:55

Current date and time
Zulu (UTC)  08-Mar-2021 19:50:38
Local (UTC-5)  08-Mar-2021 14:50:38
 
METAR
KJAX 
25nm SE 
081856Z 06010G18KT 020V090 10SM CLR 16/01 A3053 RMK AO2 SLP337 T01610006
KFHB 
31nm E 
081935Z AUTO 05012KT 10SM CLR 16/01 A3054 RMK AO2 T01580010
KHEG 
33nm S 
081935Z AUTO 09013KT CLR 16/M00 A3053 RMK AO2
KAYS 
33nm NW 
081935Z AUTO 00000KT 10SM CLR 19/M04 A3051 RMK AO2 T01881042
KVQQ 
36nm S 
081850Z 09012G17KT 10SM CLR 19/00 A3052
KCRG 
38nm SE 
081936Z 06012KT 10SM FEW001 16/03 A3052 RMK AO2 T01610028
KSSI 
39nm NE 
081853Z AUTO 06011KT 10SM CLR 16/M01 A3055 RMK AO2 SLP344 T01561006
KNIP 
39nm SE 
081853Z 07006KT 10SM CLR 16/02 A3053 RMK AO2 SLP333 T01610022
KBQK 
40nm NE 
081935Z AUTO 08009KT 10SM CLR 16/M01 A3053 RMK AO2 T01591014
KNRB 
40nm SE 
081852Z 02012KT 10SM CLR 17/04 A3054 RMK AO2 SLP340 T01670039
TAF
KJAX 
25nm SE 
081604Z 0816/0912 05013G20KT P6SM SKC FM090000 VRB03KT P6SM SKC
NOTAMs
Click for the latest NOTAMs
NOTAMs are issued by the DoD/FAA and will open in a separate window not controlled by AirNav.

 

 
 

Would you like to see your business listed on this page?

 If your business provides an interesting product or service to pilots, flight crews, aircraft, or users of the Davis Field Airport, you should consider listing it here.  To start the listing process, click on the button below
 
Add a business
 

Other Pages about Davis Field Airport

Update a link
 
Copyright © AirNav, LLC. All rights reserved. Privacy Policy  Contact